, AK

(GMT )
Kotzebue

Weather History for PAOT - November, 2013

Change the Weather History Date:

Friday, November 8, 2013

  Actual Average Record
Temperature  
Mean Temperature 25 °F 11 °F  
Max Temperature 30 °F 16 °F 37 °F (1979)
Min Temperature 19 °F 7 °F -16 °F (1956)
Degree Days  
Heating Degree Days 40 54  
Month to date heating degree days 355 416  
Since 1 July heating degree days 2649 3097  
Cooling Degree Days 0 0  
Month to date cooling degree days 0 0  
Year to date cooling degree days 13 5  
Moisture  
Dew Point 21 °F    
Average Humidity 0    
Maximum Humidity 0    
Minimum Humidity 0    
Precipitation  
Precipitation 0.06 in 0.02 in 0.32 in (2015)
Month to date precipitation 0.38 0.19  
Year to date precipitation 10.47 9.66  
Snow  
Snow 0.50 in 0.30 in 2.20 in (2006)
Month to date snowfall 2.3 2.3  
Since 1 July snowfall 3.2 9.2  
Since 1 September snowfall 3.2 9.2  
Snow Depth 2.00 in    
Sea Level Pressure  
Sea Level Pressure 29.59 in    
Wind  
Wind Speed 27 mph (ESE)    
Max Wind Speed 37 mph    
Max Gust Speed 43 mph    
Visibility 3 miles    
Events Fog , Snow    
T = Trace of Precipitation, MM = Missing Value Source: NWS Daily Summary

Daily Weather History Graph

Daily Weather History Graph

Search for Another Location

Airport or City:

Trip Planner

Search our weather history database for the weather conditions in past years. The results will help you decide how hot, cold, wet, or windy it might be!

Date:

Astronomy

Nov. 08, 2013 Rise Set
Actual Time 10:21 AM AKST 4:45 PM AKST
Civil Twilight 9:15 AM AKST 5:51 PM AKST
Nautical Twilight 8:09 AM AKST 6:57 PM AKST
Astronomical Twilight 7:07 AM AKST 7:59 PM AKST
Moon 3:19 PM AKST (11/8) 10:35 PM AKST (11/8)
Length of Visible Light 8h 36m
Length of Day
6h 23m
Waxing Crescent, 34% of the Moon is Illuminated
Nov 8
Waxing Crescent
Nov 9
First Quarter
Nov 17
Full
Nov 25
Last Quarter
Dec 2
New

Hourly Weather History & Observations

Time (AKST) Temp. Windchill Dew Point Humidity Pressure Visibility Wind Dir Wind Speed Gust Speed Precip Events Conditions
12:02 AM 19.4 °F -0.0 °F 15.8 °F 86% 29.75 in 10.0 mi ESE 32.2 mph - N/A   Overcast
12:28 AM 19.4 °F -0.3 °F 15.8 °F 86% 29.76 in 10.0 mi ESE 33.4 mph 39.1 mph N/A   Overcast
12:53 AM 19.0 °F 0.0 °F 16.0 °F 88% 29.76 in 10.0 mi ESE 29.9 mph - N/A   Overcast
1:53 AM 19.9 °F 1.8 °F 16.0 °F 85% 29.77 in 10.0 mi ESE 27.6 mph - N/A   Overcast
2:11 AM 19.4 °F 0.8 °F 15.8 °F 86% 29.77 in 6.0 mi ESE 28.8 mph - 0.00 in Snow Light Snow
2:53 AM 19.9 °F 1.5 °F 17.1 °F 89% 29.76 in 7.0 mi ESE 28.8 mph - 0.00 in Snow Blowing Snow
3:07 AM 19.4 °F 1.1 °F 17.6 °F 93% 29.76 in 10.0 mi ESE 27.6 mph - 0.00 in   Overcast
3:53 AM 21.0 °F 3.3 °F 17.1 °F 85% 29.76 in 10.0 mi ESE 27.6 mph - 0.00 in   Overcast
4:53 AM 21.0 °F 2.7 °F 17.1 °F 85% 29.74 in 10.0 mi ESE 29.9 mph 35.7 mph N/A   Overcast
5:53 AM 21.0 °F 2.7 °F 18.0 °F 88% 29.72 in 10.0 mi ESE 29.9 mph 36.8 mph N/A   Overcast
6:09 AM 21.2 °F 1.9 °F 17.6 °F 86% 29.70 in 6.0 mi ESE 34.5 mph 42.6 mph N/A Snow Light Snow
6:17 AM 21.2 °F 2.4 °F 17.6 °F 86% 29.70 in 5.0 mi ESE 32.2 mph 42.6 mph N/A Snow Light Snow
6:27 AM 21.2 °F 1.9 °F 17.6 °F 86% 29.70 in 1.8 mi ESE 34.5 mph - N/A Snow Light Snow
6:53 AM 21.0 °F 2.2 °F 18.0 °F 88% 29.69 in 1.5 mi ESE 32.2 mph - N/A Snow Light Snow
7:01 AM 21.2 °F 2.4 °F 17.6 °F 86% 29.68 in 1.0 mi ESE 32.2 mph - N/A Snow Light Snow
7:10 AM 21.2 °F 1.7 °F 17.6 °F 86% 29.68 in 0.5 mi ESE 35.7 mph 40.3 mph N/A Snow Snow
7:21 AM 21.2 °F 2.2 °F 19.4 °F 93% 29.68 in 1.0 mi ESE 33.4 mph 40.3 mph N/A Snow Light Snow
7:53 AM 21.9 °F 3.1 °F 19.0 °F 89% 29.68 in 1.8 mi ESE 33.4 mph - N/A Snow Light Snow
8:03 AM 21.2 °F 2.2 °F 19.4 °F 93% 29.68 in 2.0 mi ESE 33.4 mph - N/A Snow Light Snow
8:12 AM 21.2 °F 3.0 °F 19.4 °F 93% 29.67 in 1.0 mi ESE 29.9 mph 40.3 mph N/A Snow Light Snow
8:18 AM 21.2 °F 3.0 °F 19.4 °F 93% 29.67 in 0.8 mi ESE 29.9 mph 36.8 mph N/A Snow Light Snow
8:30 AM 21.2 °F 2.7 °F 17.6 °F 86% 29.67 in 1.0 mi ESE 31.1 mph 38.0 mph N/A Snow Light Snow
8:44 AM 21.2 °F 2.2 °F 19.4 °F 93% 29.66 in 1.5 mi ESE 33.4 mph 39.1 mph N/A Snow Light Snow
8:53 AM 21.0 °F 3.0 °F 19.0 °F 92% 29.66 in 2.5 mi ESE 28.8 mph 38.0 mph N/A Snow Light Snow
9:03 AM 21.2 °F 2.7 °F 19.4 °F 93% 29.66 in 1.8 mi ESE 31.1 mph - N/A Snow Light Snow
9:12 AM 21.2 °F 2.7 °F 19.4 °F 93% 29.66 in 2.5 mi ESE 31.1 mph 38.0 mph N/A Snow Light Snow
9:23 AM 23.0 °F 4.6 °F 19.4 °F 86% 29.65 in 3.0 mi ESE 33.4 mph 39.1 mph N/A Snow Light Snow
9:39 AM 21.2 °F 2.7 °F 19.4 °F 93% 29.64 in 1.0 mi ESE 31.1 mph 42.6 mph N/A Snow Light Snow
9:46 AM 23.0 °F 6.0 °F 19.4 °F 86% 29.64 in 0.8 mi SE 27.6 mph 38.0 mph N/A Snow Light Snow
9:53 AM 23.0 °F 5.7 °F 19.9 °F 88% 29.65 in 0.8 mi SE 28.8 mph 38.0 mph N/A Snow Light Snow
10:46 AM 21.2 °F 3.9 °F 19.4 °F 93% 29.63 in 0.5 mi ESE 26.5 mph 34.5 mph 0.01 in Snow Snow
10:53 AM 21.9 °F 3.7 °F 19.9 °F 92% 29.64 in 0.2 mi ESE 31.1 mph - 0.01 in Snow Heavy Snow
11:04 AM 21.2 °F 2.2 °F 19.4 °F 93% 29.63 in 0.2 mi ESE 33.4 mph 39.1 mph 0.00 in Snow Heavy Snow
11:17 AM 21.2 °F 3.5 °F 19.4 °F 93% 29.63 in 0.5 mi ESE 27.6 mph - 0.00 in Snow Snow
11:42 AM 21.2 °F 3.3 °F 19.4 °F 93% 29.64 in 0.8 mi ESE 28.8 mph - 0.00 in Snow Light Snow
11:53 AM 21.0 °F 3.6 °F 18.0 °F 88% 29.64 in 1.0 mi ESE 26.5 mph 34.5 mph 0.00 in Snow Light Snow
11:58 AM 21.2 °F 4.2 °F 17.6 °F 86% 29.63 in 0.8 mi ESE 25.3 mph - 0.00 in Snow Light Snow
12:13 PM 21.2 °F 3.9 °F 19.4 °F 93% 29.63 in 1.0 mi ESE 26.5 mph 32.2 mph 0.00 in Snow Light Snow
12:53 PM 19.9 °F 1.8 °F 18.0 °F 92% 29.63 in 1.5 mi ESE 27.6 mph - 0.00 in Snow Blowing Snow
1:00 PM 19.4 °F 1.8 °F 17.6 °F 93% 29.62 in 3.0 mi ESE 25.3 mph - N/A   Overcast
1:53 PM 21.0 °F 3.6 °F 18.0 °F 88% 29.62 in 4.0 mi ESE 26.5 mph - N/A   Overcast
2:53 PM 21.0 °F 5.4 °F 19.0 °F 92% 29.60 in 9.0 mi ESE 20.7 mph - N/A   Mostly Cloudy
2:59 PM 21.2 °F 5.6 °F 19.4 °F 93% 29.60 in 10.0 mi ESE 20.7 mph - N/A   Partly Cloudy
3:53 PM 21.9 °F 8.2 °F 21.0 °F 96% 29.60 in 10.0 mi ESE 16.1 mph - 0.01 in   Scattered Clouds
4:53 PM 26.1 °F 12.3 °F 23.0 °F 88% 29.57 in 10.0 mi SE 19.6 mph - N/A   Overcast
5:53 PM 25.0 °F 10.9 °F 21.9 °F 88% 29.55 in 10.0 mi ESE 19.6 mph - N/A   Overcast
6:46 PM 28.4 °F 13.3 °F 24.8 °F 86% 29.53 in 2.5 mi SE 27.6 mph - 0.00 in Snow Light Snow
6:53 PM 27.0 °F 12.2 °F 24.1 °F 89% 29.53 in 3.0 mi SE 24.2 mph - 0.00 in Snow Light Snow
6:58 PM 26.6 °F 12.0 °F 24.8 °F 93% 29.52 in 2.0 mi SE 23.0 mph - 0.00 in Snow Light Snow
7:36 PM 26.6 °F 12.7 °F 24.8 °F 93% 29.50 in 1.2 mi ESE 20.7 mph - 0.00 in Snow Light Snow
7:53 PM 27.0 °F 13.2 °F 25.0 °F 92% 29.50 in 1.2 mi SE 20.7 mph - 0.01 in Snow Light Snow
8:07 PM 28.4 °F 14.4 °F 26.6 °F 93% 29.49 in 0.8 mi SE 23.0 mph - 0.00 in Snow Light Snow
8:22 PM 30.2 °F 15.9 °F 28.4 °F 93% 29.48 in 1.0 mi SE 26.5 mph 32.2 mph 0.00 in Snow Light Snow
8:41 PM 30.2 °F 15.4 °F 28.4 °F 93% 29.47 in 0.8 mi SE 28.8 mph 34.5 mph 0.00 in Snow Light Snow
8:53 PM 26.1 °F 10.4 °F 24.1 °F 92% 29.46 in 0.8 mi ESE 26.5 mph - 0.00 in Snow Light Snow
9:10 PM 26.6 °F 11.4 °F 24.8 °F 93% 29.45 in 0.5 mi ESE 25.3 mph - 0.00 in Fog , Snow Snow
9:25 PM 26.6 °F 10.6 °F 24.8 °F 93% 29.44 in 0.5 mi ESE 28.8 mph - 0.03 in Fog , Snow Snow
9:33 PM 26.6 °F 10.6 °F 24.8 °F 93% 29.43 in 0.8 mi ESE 28.8 mph - 0.03 in Snow Light Snow
9:48 PM 26.6 °F 10.6 °F 24.8 °F 93% 29.42 in 0.5 mi ESE 28.8 mph 36.8 mph 0.03 in Fog , Snow Snow
9:53 PM 27.0 °F 10.8 °F 25.0 °F 92% 29.42 in 0.8 mi ESE 29.9 mph 35.7 mph 0.03 in Snow Light Snow
10:00 PM 26.6 °F 10.3 °F 24.8 °F 93% 29.41 in 1.2 mi ESE 29.9 mph 38.0 mph 0.00 in Snow Light Snow
10:27 PM 26.6 °F 10.3 °F 24.8 °F 93% 29.40 in 1.2 mi ESE 29.9 mph 35.7 mph 0.00 in Snow Light Snow
10:44 PM 26.6 °F 10.0 °F 24.8 °F 93% 29.39 in 1.5 mi ESE 31.1 mph - 0.00 in Snow Light Snow
10:53 PM 27.0 °F 11.9 °F 25.0 °F 92% 29.39 in 1.5 mi ESE 25.3 mph - 0.00 in Snow Light Snow
11:04 PM 26.6 °F 10.6 °F 24.8 °F 93% 29.38 in 1.5 mi ESE 28.8 mph 36.8 mph 0.00 in Snow Light Snow
11:13 PM 26.6 °F 10.8 °F 24.8 °F 93% 29.38 in 2.5 mi ESE 27.6 mph - 0.00 in Snow Light Snow
11:25 PM 26.6 °F 10.8 °F 26.6 °F 100% 29.38 in 3.0 mi ESE 27.6 mph - 0.00 in Snow Light Snow
11:40 PM 26.6 °F 10.8 °F 26.6 °F 100% 29.37 in 2.5 mi ESE 27.6 mph - 0.00 in Snow Light Snow
11:51 PM 26.6 °F 11.7 °F 26.6 °F 100% 29.37 in 4.0 mi ESE 24.2 mph - 0.00 in Snow Light Snow
11:53 PM 27.0 °F 11.9 °F 26.1 °F 96% 29.37 in 4.0 mi ESE 25.3 mph - 0.00 in Snow Light Snow